PHMAS EDDN-EPKK

Flight info

Callsign PHMAS
Flight time 1h 35m
Altitude 27000
Route ERETO1G ERETO Z715 KULOK L984 OKG DCT PADKA
Aircraft PC12/L-SDFGRWY/S

Departure

Time 2026-05-07 17:41
Airport Nuremberg Airport (EDDN)

Arrival

Time 2026-05-07 19:17
Airport Kraków John Paul II International Airport (EPKK)
Time Latitude Longitude Altitude Speed Heading
2026-05-07 17:22 49.49533 11.07131 1025 ft 0 kts 188°
2026-05-07 17:34 49.49509 11.07141 1025 ft 7 kts 119°
2026-05-07 17:34 49.49544 11.07198 1025 ft 10 kts
2026-05-07 17:34 49.49611 11.07214 1025 ft 9 kts 10°
2026-05-07 17:34 49.49637 11.07259 1025 ft 8 kts 99°
2026-05-07 17:35 49.49628 11.07358 1025 ft 11 kts 97°
2026-05-07 17:35 49.49615 11.07484 1025 ft 13 kts 100°
2026-05-07 17:35 49.49601 11.07631 1025 ft 15 kts 99°
2026-05-07 17:35 49.49584 11.07793 1025 ft 16 kts 98°
2026-05-07 17:36 49.49568 11.07968 1025 ft 17 kts 99°
2026-05-07 17:36 49.49549 11.08152 1025 ft 17 kts 98°
2026-05-07 17:36 49.49539 11.08250 1025 ft 8 kts 98°
2026-05-07 17:36 49.49551 11.08346 1025 ft 11 kts 37°
2026-05-07 17:37 49.49618 11.08391 1026 ft 11 kts 52°
2026-05-07 17:37 49.49668 11.08491 1027 ft 8 kts 52°
2026-05-07 17:37 49.49684 11.08522 1028 ft 4 kts 51°
2026-05-07 17:37 49.49688 11.08530 1028 ft 0 kts 47°
2026-05-07 17:39 49.49702 11.08551 1028 ft 11 kts 33°
2026-05-07 17:39 49.49774 11.08564 1028 ft 13 kts 354°
2026-05-07 17:39 49.49800 11.08500 1028 ft 11 kts 275°
2026-05-07 17:39 49.49802 11.08478 1028 ft 0 kts 278°
2026-05-07 17:40 49.49841 11.08150 1026 ft 61 kts 277°
2026-05-07 17:41 49.49924 11.07324 1095 ft 91 kts 277°
2026-05-07 17:41 49.50006 11.06317 1352 ft 101 kts 282°
2026-05-07 17:41 49.50135 11.05114 1574 ft 128 kts 281°
2026-05-07 17:41 49.50273 11.03760 2093 ft 127 kts 282°
2026-05-07 17:42 49.50407 11.02400 2616 ft 130 kts 282°
2026-05-07 17:42 49.50542 11.01008 3128 ft 133 kts 282°
2026-05-07 17:42 49.50681 10.99585 3638 ft 136 kts 282°
2026-05-07 17:42 49.50823 10.98123 4146 ft 140 kts 281°
2026-05-07 17:43 49.50968 10.96636 4687 ft 143 kts 281°
2026-05-07 17:43 49.51117 10.95095 5260 ft 145 kts 280°
2026-05-07 17:43 49.51332 10.93611 5851 ft 145 kts 297°
2026-05-07 17:43 49.52085 10.92601 6502 ft 150 kts 336°
2026-05-07 17:44 49.53148 10.92455 7085 ft 156 kts 357°
2026-05-07 17:44 49.54201 10.92899 7665 ft 165 kts 31°
2026-05-07 17:44 49.55115 10.94006 8271 ft 168 kts 34°
2026-05-07 17:44 49.56028 10.95137 8909 ft 170 kts 34°
2026-05-07 17:45 49.56957 10.96275 9519 ft 171 kts 34°
2026-05-07 17:45 49.57897 10.97422 10097 ft 173 kts 34°
2026-05-07 17:45 49.58834 10.98567 10633 ft 175 kts 34°
2026-05-07 17:45 49.59792 10.99738 11176 ft 177 kts 34°
2026-05-07 17:46 49.60762 11.00923 11729 ft 179 kts 34°
2026-05-07 17:46 49.61740 11.02119 12279 ft 180 kts 34°
2026-05-07 17:46 49.62732 11.03334 12850 ft 182 kts 34°
2026-05-07 17:46 49.63733 11.04559 13417 ft 185 kts 34°
2026-05-07 17:47 49.64743 11.05797 13959 ft 187 kts 34°
2026-05-07 17:47 49.65765 11.07050 14460 ft 188 kts 34°
2026-05-07 17:47 49.66791 11.08309 14969 ft 189 kts 34°
2026-05-07 17:47 49.67829 11.09582 15468 ft 190 kts 34°
2026-05-07 17:48 49.68870 11.10860 15980 ft 192 kts 35°
2026-05-07 17:48 49.69917 11.12147 16469 ft 193 kts 34°
2026-05-07 17:48 49.70981 11.13454 16855 ft 201 kts 35°
2026-05-07 17:48 49.72106 11.14836 17123 ft 211 kts 35°
2026-05-07 17:49 49.73277 11.16282 17393 ft 219 kts 35°
2026-05-07 17:49 49.74467 11.17751 17660 ft 224 kts 36°
2026-05-07 17:49 49.75706 11.19278 17895 ft 230 kts 36°
2026-05-07 17:49 49.76970 11.20837 18082 ft 235 kts 36°
2026-05-07 17:50 49.78263 11.22435 18277 ft 239 kts 36°
2026-05-07 17:50 49.79576 11.24056 18453 ft 242 kts 36°
2026-05-07 17:50 49.80900 11.25694 18617 ft 244 kts 36°
2026-05-07 17:50 49.82232 11.27342 18788 ft 246 kts 36°
2026-05-07 17:51 49.83574 11.29002 18953 ft 247 kts 36°
2026-05-07 17:51 49.84921 11.30668 19119 ft 248 kts 36°
2026-05-07 17:51 49.86269 11.32338 19288 ft 248 kts 36°
2026-05-07 17:51 49.87617 11.34010 19460 ft 249 kts 36°
2026-05-07 17:52 49.88972 11.35692 19632 ft 249 kts 36°
2026-05-07 17:52 49.90311 11.37355 19802 ft 250 kts 36°
2026-05-07 17:52 49.91669 11.39043 19974 ft 250 kts 36°
2026-05-07 17:52 49.93024 11.40739 20147 ft 249 kts 38°
2026-05-07 17:53 49.94252 11.42621 20324 ft 248 kts 42°
2026-05-07 17:53 49.95469 11.44515 20501 ft 247 kts 42°
2026-05-07 17:53 49.96272 11.45763 20620 ft 247 kts 42°
2026-05-07 17:53 49.97484 11.47656 20795 ft 247 kts 42°
2026-05-07 17:54 49.98694 11.49552 20978 ft 247 kts 42°
2026-05-07 17:54 49.99906 11.51452 21161 ft 247 kts 42°
2026-05-07 17:54 50.01114 11.53346 21341 ft 247 kts 42°
2026-05-07 17:54 50.02307 11.55218 21520 ft 247 kts 42°
2026-05-07 17:55 50.03519 11.57120 21705 ft 247 kts 42°
2026-05-07 17:55 50.04730 11.59023 21892 ft 247 kts 42°
2026-05-07 17:55 50.05939 11.60924 22078 ft 247 kts 42°
2026-05-07 17:55 50.06939 11.63095 22259 ft 252 kts 64°
2026-05-07 17:56 50.07282 11.65783 22457 ft 256 kts 86°
2026-05-07 17:56 50.07273 11.68563 22647 ft 257 kts 89°
2026-05-07 17:56 50.07234 11.71345 22839 ft 257 kts 89°
2026-05-07 17:56 50.07209 11.74131 23034 ft 258 kts 88°
2026-05-07 17:57 50.07195 11.76892 23226 ft 258 kts 88°
2026-05-07 17:57 50.07178 11.79689 23420 ft 259 kts 88°
2026-05-07 17:57 50.07156 11.82484 23610 ft 259 kts 88°
2026-05-07 17:57 50.07134 11.85305 23785 ft 260 kts 88°
2026-05-07 17:58 50.07112 11.88131 23923 ft 262 kts 88°
2026-05-07 17:58 50.07089 11.90970 24044 ft 264 kts 88°
2026-05-07 17:58 50.07066 11.93829 24163 ft 265 kts 88°
2026-05-07 17:58 50.07041 11.96708 24284 ft 266 kts 88°
2026-05-07 17:59 50.07015 11.99602 24417 ft 268 kts 88°
2026-05-07 17:59 50.06989 12.02502 24539 ft 268 kts 88°
2026-05-07 17:59 50.06962 12.05415 24661 ft 269 kts 88°
2026-05-07 17:59 50.06934 12.08325 24780 ft 269 kts 88°
2026-05-07 18:00 50.06904 12.11239 24907 ft 270 kts 89°
2026-05-07 18:00 50.06868 12.14171 25028 ft 270 kts 89°
2026-05-07 18:00 50.06831 12.17062 25150 ft 270 kts 89°
2026-05-07 18:00 50.06795 12.19988 25274 ft 271 kts 89°
2026-05-07 18:01 50.06758 12.22918 25397 ft 271 kts 89°
2026-05-07 18:01 50.06720 12.25852 25524 ft 271 kts 89°
2026-05-07 18:01 50.06681 12.28808 25650 ft 272 kts 89°
2026-05-07 18:01 50.06641 12.31753 25778 ft 272 kts 89°
2026-05-07 18:02 50.06560 12.37646 26030 ft 272 kts 89°
2026-05-07 18:02 50.06522 12.40559 26160 ft 272 kts 88°
2026-05-07 18:02 50.06566 12.43489 26285 ft 271 kts 87°
2026-05-07 18:03 50.06549 12.46424 26412 ft 271 kts 89°
2026-05-07 18:03 50.06533 12.49336 26544 ft 272 kts 88°
2026-05-07 18:03 50.06542 12.52293 26629 ft 273 kts 87°
2026-05-07 18:03 50.06555 12.55260 26702 ft 275 kts 88°
2026-05-07 18:04 50.06560 12.58258 26780 ft 276 kts 88°
2026-05-07 18:04 50.06561 12.61249 26860 ft 277 kts 88°
2026-05-07 18:04 50.06564 12.64263 26941 ft 278 kts 88°
2026-05-07 18:04 50.06567 12.67230 27020 ft 279 kts 88°
2026-05-07 18:05 50.06569 12.70260 27020 ft 281 kts 88°
2026-05-07 18:05 50.06570 12.73317 27020 ft 283 kts 88°
2026-05-07 18:05 50.06569 12.76397 27023 ft 285 kts 88°
2026-05-07 18:05 50.06568 12.79485 27026 ft 286 kts 88°
2026-05-07 18:06 50.06567 12.82582 27025 ft 287 kts 88°
2026-05-07 18:06 50.06564 12.85690 27026 ft 287 kts 88°
2026-05-07 18:06 50.06561 12.88803 27024 ft 288 kts 88°
2026-05-07 18:06 50.06557 12.91917 27029 ft 288 kts 88°
2026-05-07 18:07 50.06552 12.95036 27029 ft 288 kts 89°
2026-05-07 18:07 50.06546 12.98168 27030 ft 288 kts 89°
2026-05-07 18:07 50.06539 13.01289 27028 ft 289 kts 89°
2026-05-07 18:07 50.06532 13.04375 27028 ft 289 kts 89°
2026-05-07 18:08 50.06524 13.07507 27029 ft 289 kts 89°
2026-05-07 18:08 50.06514 13.10640 27030 ft 289 kts 89°
2026-05-07 18:08 50.06504 13.13766 27029 ft 290 kts 89°
2026-05-07 18:08 50.06493 13.16910 27031 ft 290 kts 89°
2026-05-07 18:09 50.06482 13.20059 27029 ft 290 kts 89°
2026-05-07 18:09 50.06469 13.23203 27028 ft 289 kts 89°
2026-05-07 18:09 50.06456 13.26296 27025 ft 289 kts 89°
2026-05-07 18:09 50.06442 13.29428 27029 ft 289 kts 89°
2026-05-07 18:10 50.06426 13.32561 27026 ft 289 kts 89°
2026-05-07 18:10 50.06410 13.35691 27029 ft 289 kts 89°
2026-05-07 18:10 50.06394 13.38825 27027 ft 289 kts 89°
2026-05-07 18:10 50.06376 13.41958 27022 ft 289 kts 90°
2026-05-07 18:11 50.06358 13.45092 27023 ft 289 kts 90°
2026-05-07 18:11 50.06345 13.47173 27026 ft 289 kts 90°
2026-05-07 18:11 50.06318 13.51356 27026 ft 289 kts 90°
2026-05-07 18:11 50.06297 13.54485 27024 ft 289 kts 90°
2026-05-07 18:12 50.06276 13.57585 27028 ft 289 kts 90°
2026-05-07 18:12 50.06253 13.60715 27028 ft 289 kts 90°
2026-05-07 18:12 50.06230 13.63840 27024 ft 289 kts 90°
2026-05-07 18:12 50.06205 13.66976 27024 ft 289 kts 90°
2026-05-07 18:13 50.06180 13.70119 27026 ft 289 kts 91°
2026-05-07 18:13 50.06154 13.73254 27026 ft 289 kts 91°
2026-05-07 18:13 50.06127 13.76393 27026 ft 289 kts 91°
2026-05-07 18:13 50.06099 13.79519 27027 ft 289 kts 91°
2026-05-07 18:14 50.06071 13.82655 27029 ft 290 kts 91°
2026-05-07 18:14 50.06041 13.85791 27025 ft 290 kts 91°
2026-05-07 18:14 50.06012 13.88890 27026 ft 290 kts 91°
2026-05-07 18:14 50.05980 13.92021 27025 ft 290 kts 91°
2026-05-07 18:15 50.05949 13.95160 27025 ft 290 kts 92°
2026-05-07 18:15 50.05916 13.98296 27024 ft 289 kts 92°
2026-05-07 18:15 50.05882 14.01431 27026 ft 290 kts 92°
2026-05-07 18:15 50.05848 14.04563 27026 ft 289 kts 92°
2026-05-07 18:16 50.05812 14.07700 27024 ft 289 kts 92°
2026-05-07 18:16 50.05776 14.10829 27025 ft 289 kts 92°
2026-05-07 18:16 50.05739 14.13966 27023 ft 289 kts 92°
2026-05-07 18:16 50.05702 14.17059 27026 ft 289 kts 93°
2026-05-07 18:17 50.05663 14.20186 27024 ft 289 kts 93°
2026-05-07 18:17 50.05624 14.23312 27023 ft 289 kts 93°
2026-05-07 18:17 50.05583 14.26441 27023 ft 289 kts 93°
2026-05-07 18:17 50.05542 14.29569 27024 ft 289 kts 93°
2026-05-07 18:18 50.05500 14.32699 27027 ft 289 kts 94°
2026-05-07 18:18 50.05457 14.35828 27023 ft 289 kts 94°
2026-05-07 18:18 50.05414 14.38920 27022 ft 289 kts 94°
2026-05-07 18:18 50.05370 14.42050 26994 ft 289 kts 94°
2026-05-07 18:19 50.05325 14.45174 26989 ft 289 kts 94°
2026-05-07 18:19 50.05278 14.48300 26989 ft 289 kts 94°
2026-05-07 18:19 50.05231 14.51429 26989 ft 289 kts 94°
2026-05-07 18:19 50.05183 14.54560 26989 ft 289 kts 94°
2026-05-07 18:20 50.05135 14.57690 26985 ft 289 kts 95°
2026-05-07 18:20 50.05085 14.60827 26986 ft 290 kts 95°
2026-05-07 18:20 50.05035 14.63958 26986 ft 290 kts 95°
2026-05-07 18:20 50.04983 14.67094 26985 ft 290 kts 95°
2026-05-07 18:21 50.04931 14.70233 26985 ft 290 kts 95°
2026-05-07 18:21 50.04878 14.73366 26982 ft 290 kts 95°
2026-05-07 18:21 50.04825 14.76458 26980 ft 290 kts 95°
2026-05-07 18:21 50.04770 14.79601 26978 ft 290 kts 95°
2026-05-07 18:22 50.04714 14.82743 26979 ft 290 kts 95°
2026-05-07 18:22 50.04677 14.84822 26977 ft 290 kts 96°
2026-05-07 18:22 50.04600 14.89030 26975 ft 290 kts 96°
2026-05-07 18:22 50.04542 14.92170 26975 ft 290 kts 96°
2026-05-07 18:23 50.04483 14.95313 26973 ft 290 kts 96°
2026-05-07 18:23 50.04423 14.98451 26968 ft 290 kts 96°
2026-05-07 18:23 50.04363 15.01590 26968 ft 290 kts 96°
2026-05-07 18:23 50.04302 15.04696 26961 ft 290 kts 96°
2026-05-07 18:24 50.04239 15.07842 26961 ft 290 kts 97°
2026-05-07 18:24 50.04176 15.10985 26963 ft 290 kts 97°
2026-05-07 18:24 50.04112 15.14121 26962 ft 290 kts 97°
2026-05-07 18:24 50.04047 15.17259 26959 ft 290 kts 97°
2026-05-07 18:25 50.03981 15.20398 26963 ft 290 kts 97°
2026-05-07 18:25 50.03914 15.23533 26961 ft 290 kts 97°
2026-05-07 18:25 50.03848 15.26634 26963 ft 290 kts 97°
2026-05-07 18:25 50.03779 15.29772 26966 ft 290 kts 97°
2026-05-07 18:26 50.03710 15.32911 26968 ft 290 kts 98°
2026-05-07 18:26 50.03640 15.36047 26966 ft 290 kts 98°
2026-05-07 18:26 50.03569 15.39190 26970 ft 290 kts 98°
2026-05-07 18:26 50.03498 15.42327 26972 ft 290 kts 98°
2026-05-07 18:27 50.03425 15.45457 26974 ft 289 kts 98°
2026-05-07 18:27 50.03352 15.48582 26977 ft 289 kts 98°
2026-05-07 18:27 50.03278 15.51707 26977 ft 289 kts 98°
2026-05-07 18:27 50.03229 15.53778 26982 ft 289 kts 98°
2026-05-07 18:28 50.03128 15.57956 26983 ft 289 kts 98°
2026-05-07 18:28 50.03052 15.61034 26986 ft 289 kts 98°
2026-05-07 18:28 50.02975 15.64163 26984 ft 288 kts 99°
2026-05-07 18:28 50.02897 15.67273 26985 ft 288 kts 99°
2026-05-07 18:29 50.02819 15.70382 26983 ft 288 kts 99°
2026-05-07 18:29 50.02739 15.73494 26983 ft 288 kts 99°
2026-05-07 18:29 50.02659 15.76605 26984 ft 288 kts 99°
2026-05-07 18:29 50.02577 15.79727 26985 ft 287 kts 99°
2026-05-07 18:30 50.02496 15.82829 26983 ft 287 kts 99°
2026-05-07 18:30 50.02413 15.85936 26984 ft 287 kts 99°
2026-05-07 18:30 50.02330 15.89049 26983 ft 287 kts 99°
2026-05-07 18:30 50.02246 15.92113 26981 ft 287 kts 99°
2026-05-07 18:31 50.02161 15.95219 26980 ft 287 kts 99°
2026-05-07 18:31 50.02075 15.98319 26978 ft 286 kts 99°
2026-05-07 18:31 50.01989 16.01409 26974 ft 286 kts 99°
2026-05-07 18:31 50.01902 16.04502 26976 ft 286 kts 99°
2026-05-07 18:32 50.01814 16.07600 26974 ft 286 kts 99°
2026-05-07 18:32 50.01724 16.10708 26969 ft 287 kts 99°
2026-05-07 18:32 50.01634 16.13807 26972 ft 286 kts 99°
2026-05-07 18:32 50.01545 16.16860 26969 ft 286 kts 99°
2026-05-07 18:33 50.01454 16.19949 26968 ft 286 kts 100°
2026-05-07 18:33 50.01361 16.23043 26966 ft 286 kts 100°
2026-05-07 18:33 50.01268 16.26133 26966 ft 286 kts 100°
2026-05-07 18:33 50.01175 16.29219 26966 ft 286 kts 100°
2026-05-07 18:34 50.01080 16.32310 26964 ft 286 kts 100°
2026-05-07 18:34 50.00984 16.35407 26965 ft 286 kts 100°
2026-05-07 18:34 50.00888 16.38493 26963 ft 286 kts 100°
2026-05-07 18:34 50.00792 16.41577 26963 ft 286 kts 100°
2026-05-07 18:35 50.00693 16.44674 26963 ft 286 kts 100°
2026-05-07 18:35 50.00595 16.47761 26964 ft 286 kts 100°
2026-05-07 18:35 50.00495 16.50852 26963 ft 286 kts 100°
2026-05-07 18:35 50.00395 16.53941 26964 ft 286 kts 101°
2026-05-07 18:36 50.00295 16.57004 26974 ft 286 kts 101°
2026-05-07 18:36 50.00192 16.60102 26966 ft 286 kts 101°
2026-05-07 18:36 50.00089 16.63191 26965 ft 286 kts 101°
2026-05-07 18:36 49.99985 16.66282 26964 ft 287 kts 101°
2026-05-07 18:37 49.99880 16.69389 26967 ft 287 kts 101°
2026-05-07 18:37 49.99775 16.72478 26964 ft 287 kts 101°
2026-05-07 18:37 49.99669 16.75575 26966 ft 287 kts 101°
2026-05-07 18:37 49.99563 16.78645 26966 ft 287 kts 101°
2026-05-07 18:38 49.99454 16.81742 26962 ft 288 kts 101°
2026-05-07 18:38 49.99345 16.84850 26964 ft 288 kts 101°
2026-05-07 18:38 49.99235 16.87960 26965 ft 288 kts 101°
2026-05-07 18:38 49.99125 16.91058 26959 ft 288 kts 101°
2026-05-07 18:39 49.99013 16.94167 26963 ft 288 kts 102°
2026-05-07 18:39 49.98900 16.97279 26963 ft 288 kts 102°
2026-05-07 18:39 49.98786 17.00403 26963 ft 288 kts 102°
2026-05-07 18:39 49.98672 17.03508 26960 ft 288 kts 102°
2026-05-07 18:40 49.98596 17.05562 26965 ft 288 kts 102°
2026-05-07 18:40 49.98444 17.09675 26965 ft 287 kts 102°
2026-05-07 18:40 49.98327 17.12761 26967 ft 286 kts 102°
2026-05-07 18:40 49.98249 17.14836 26973 ft 285 kts 102°
2026-05-07 18:41 49.98130 17.17899 26719 ft 289 kts 102°
2026-05-07 18:41 49.98009 17.21007 26330 ft 288 kts 102°
2026-05-07 18:41 49.97890 17.24111 25948 ft 287 kts 102°
2026-05-07 18:41 49.97771 17.27207 25572 ft 287 kts 102°
2026-05-07 18:42 49.97650 17.30297 25197 ft 286 kts 102°
2026-05-07 18:42 49.97529 17.33372 24833 ft 285 kts 102°
2026-05-07 18:42 49.97407 17.36443 24471 ft 284 kts 102°
2026-05-07 18:42 49.97285 17.39503 24118 ft 284 kts 101°
2026-05-07 18:43 49.97162 17.42568 23758 ft 283 kts 101°
2026-05-07 18:43 49.97040 17.45594 23383 ft 283 kts 101°
2026-05-07 18:43 49.96916 17.48644 22961 ft 282 kts 101°
2026-05-07 18:43 49.96791 17.51683 22543 ft 281 kts 101°
2026-05-07 18:44 49.96667 17.54706 22139 ft 280 kts 101°
2026-05-07 18:44 49.96542 17.57730 21745 ft 279 kts 100°
2026-05-07 18:44 49.96418 17.60723 21497 ft 274 kts 100°
2026-05-07 18:44 49.96297 17.63651 21362 ft 270 kts 100°
2026-05-07 18:45 49.96172 17.66565 21233 ft 271 kts 100°
2026-05-07 18:45 49.96047 17.69485 21102 ft 272 kts 100°
2026-05-07 18:45 49.95922 17.72418 20976 ft 272 kts 100°
2026-05-07 18:45 49.95799 17.75319 20975 ft 267 kts 100°
2026-05-07 18:46 49.95677 17.78152 20973 ft 264 kts 100°
2026-05-07 18:46 49.95553 17.80994 20971 ft 262 kts 100°
2026-05-07 18:46 49.95430 17.83803 20968 ft 260 kts 100°
2026-05-07 18:46 49.95307 17.86601 20971 ft 259 kts 100°
2026-05-07 18:47 49.95183 17.89392 20969 ft 258 kts 100°
2026-05-07 18:47 49.95058 17.92181 20858 ft 262 kts 100°
2026-05-07 18:47 49.94927 17.95046 20599 ft 269 kts 100°
2026-05-07 18:47 49.94795 17.97980 20352 ft 274 kts 99°
2026-05-07 18:48 49.94663 18.00946 20102 ft 276 kts 99°
2026-05-07 18:48 49.94528 18.03938 19850 ft 278 kts 99°
2026-05-07 18:48 49.94392 18.06896 19605 ft 278 kts 98°
2026-05-07 18:48 49.94254 18.09898 19360 ft 278 kts 98°
2026-05-07 18:49 49.94116 18.12894 19117 ft 278 kts 98°
2026-05-07 18:49 49.93976 18.15893 18871 ft 278 kts 98°
2026-05-07 18:49 49.93836 18.18888 18635 ft 278 kts 97°
2026-05-07 18:49 49.93696 18.21881 18395 ft 278 kts 97°
2026-05-07 18:50 49.93554 18.24867 18139 ft 277 kts 97°
2026-05-07 18:50 49.93413 18.27851 17861 ft 277 kts 97°
2026-05-07 18:50 49.93355 18.30833 17597 ft 276 kts 95°
2026-05-07 18:50 49.93252 18.33807 17326 ft 275 kts 96°
2026-05-07 18:51 49.93138 18.36740 17062 ft 275 kts 96°
2026-05-07 18:51 49.93049 18.39706 16799 ft 275 kts 95°
2026-05-07 18:51 49.92967 18.42665 16537 ft 274 kts 95°
2026-05-07 18:51 49.92879 18.45621 16278 ft 274 kts 95°
2026-05-07 18:52 49.92786 18.48576 16019 ft 273 kts 96°
2026-05-07 18:52 49.92694 18.51517 15762 ft 273 kts 96°
2026-05-07 18:52 49.92603 18.54460 15508 ft 272 kts 95°
2026-05-07 18:52 49.92511 18.57394 15259 ft 272 kts 96°
2026-05-07 18:53 49.92418 18.60323 15010 ft 271 kts 96°
2026-05-07 18:53 49.92326 18.63204 14769 ft 271 kts 96°
2026-05-07 18:53 49.92231 18.66127 14520 ft 270 kts 96°
2026-05-07 18:53 49.92136 18.69046 14281 ft 270 kts 96°
2026-05-07 18:54 49.92040 18.71949 14042 ft 269 kts 96°
2026-05-07 18:54 49.91944 18.74856 13803 ft 269 kts 96°
2026-05-07 18:54 49.91847 18.77748 13537 ft 268 kts 96°
2026-05-07 18:54 49.91701 18.80617 13271 ft 265 kts 99°
2026-05-07 18:55 49.91539 18.83471 13005 ft 266 kts 97°
2026-05-07 18:55 49.91409 18.86297 12744 ft 266 kts 97°
2026-05-07 18:55 49.91257 18.89160 12481 ft 266 kts 97°
2026-05-07 18:55 49.91091 18.92014 12223 ft 266 kts 97°
2026-05-07 18:56 49.90928 18.94863 11970 ft 265 kts 97°
2026-05-07 18:56 49.90769 18.97718 11717 ft 265 kts 97°
2026-05-07 18:56 49.90609 19.00565 11464 ft 265 kts 97°
2026-05-07 18:56 49.90447 19.03418 11207 ft 265 kts 97°
2026-05-07 18:57 49.90284 19.06263 10959 ft 264 kts 97°
2026-05-07 18:57 49.90124 19.09067 10716 ft 264 kts 97°
2026-05-07 18:57 49.89961 19.11894 10470 ft 262 kts 97°
2026-05-07 18:57 49.89799 19.14700 10225 ft 260 kts 97°
2026-05-07 18:58 49.89637 19.17486 9982 ft 258 kts 97°
2026-05-07 18:58 49.89476 19.20249 9734 ft 257 kts 96°
2026-05-07 18:58 49.89315 19.23014 9468 ft 256 kts 97°
2026-05-07 18:58 49.89153 19.25763 9202 ft 256 kts 96°
2026-05-07 18:59 49.89220 19.28494 8939 ft 255 kts 77°
2026-05-07 18:59 49.89846 19.31029 8681 ft 254 kts 66°
2026-05-07 18:59 49.90565 19.33534 8424 ft 254 kts 65°
2026-05-07 18:59 49.91278 19.36046 8167 ft 254 kts 66°
2026-05-07 19:00 49.91981 19.38568 7913 ft 254 kts 66°
2026-05-07 19:00 49.92679 19.41075 7665 ft 253 kts 66°
2026-05-07 19:00 49.93379 19.43584 7416 ft 253 kts 66°
2026-05-07 19:00 49.94070 19.46060 7172 ft 252 kts 66°
2026-05-07 19:01 49.94755 19.48561 6925 ft 250 kts 69°
2026-05-07 19:01 49.95173 19.51171 6747 ft 247 kts 78°
2026-05-07 19:01 49.95507 19.53767 6626 ft 244 kts 78°
2026-05-07 19:01 49.95846 19.56341 6502 ft 242 kts 78°
2026-05-07 19:02 49.96194 19.58893 6382 ft 241 kts 78°
2026-05-07 19:02 49.96540 19.61441 6255 ft 240 kts 78°
2026-05-07 19:02 49.96879 19.63945 6127 ft 240 kts 78°
2026-05-07 19:02 49.97222 19.66478 6009 ft 239 kts 78°
2026-05-07 19:03 49.97565 19.69015 5891 ft 239 kts 78°
2026-05-07 19:03 49.97906 19.71537 5763 ft 239 kts 78°
2026-05-07 19:03 49.98247 19.74066 5633 ft 239 kts 78°
2026-05-07 19:03 49.98589 19.76596 5501 ft 239 kts 77°
2026-05-07 19:04 49.98927 19.79088 5377 ft 239 kts 77°
2026-05-07 19:04 49.99270 19.81612 5249 ft 239 kts 77°
2026-05-07 19:04 49.99612 19.84142 5124 ft 239 kts 77°
2026-05-07 19:04 49.99952 19.86668 5013 ft 238 kts 77°
2026-05-07 19:05 50.00287 19.89148 5005 ft 230 kts 77°
2026-05-07 19:05 50.00612 19.91545 5006 ft 224 kts 77°
2026-05-07 19:05 50.00929 19.93888 5002 ft 219 kts 77°
2026-05-07 19:05 50.01239 19.96186 4997 ft 215 kts 77°
2026-05-07 19:06 50.01545 19.98461 4898 ft 212 kts 78°
2026-05-07 19:06 50.02128 20.02781 4646 ft 195 kts 77°
2026-05-07 19:06 50.02397 20.04774 4510 ft 182 kts 77°
2026-05-07 19:07 50.02650 20.06646 4373 ft 173 kts 77°
2026-05-07 19:07 50.02893 20.08441 4244 ft 165 kts 77°
2026-05-07 19:07 50.03175 20.10054 4119 ft 146 kts 62°
2026-05-07 19:07 50.03813 20.11123 4006 ft 134 kts 25°
2026-05-07 19:08 50.04652 20.11465 4009 ft 120 kts 353°
2026-05-07 19:08 50.05447 20.11248 4008 ft 115 kts 342°
2026-05-07 19:08 50.06225 20.10996 4006 ft 116 kts 343°
2026-05-07 19:08 50.07013 20.10742 4001 ft 116 kts 343°
2026-05-07 19:09 50.07807 20.10484 4006 ft 117 kts 343°
2026-05-07 19:09 50.08605 20.10224 4005 ft 117 kts 343°
2026-05-07 19:09 50.09407 20.09962 4006 ft 118 kts 343°
2026-05-07 19:09 50.10208 20.09700 4003 ft 117 kts 343°
2026-05-07 19:10 50.11008 20.09436 4009 ft 117 kts 342°
2026-05-07 19:10 50.11664 20.08782 3935 ft 115 kts 300°
2026-05-07 19:10 50.11792 20.07584 3828 ft 117 kts 261°
2026-05-07 19:10 50.11612 20.06337 3704 ft 119 kts 259°
2026-05-07 19:11 50.11439 20.05085 3579 ft 118 kts 260°
2026-05-07 19:11 50.11267 20.03829 3452 ft 118 kts 260°
2026-05-07 19:11 50.11095 20.02567 3331 ft 119 kts 260°
2026-05-07 19:11 50.10929 20.01349 3201 ft 113 kts 259°
2026-05-07 19:12 50.10767 20.00165 3069 ft 111 kts 261°
2026-05-07 19:12 50.10609 19.99018 3002 ft 104 kts 261°
2026-05-07 19:12 50.10460 19.97935 3000 ft 100 kts 260°
2026-05-07 19:12 50.10316 19.96884 2951 ft 102 kts 261°
2026-05-07 19:13 50.10160 19.95744 2812 ft 112 kts 260°
2026-05-07 19:13 50.09996 19.94549 2665 ft 112 kts 260°
2026-05-07 19:13 50.09832 19.93356 2514 ft 113 kts 259°
2026-05-07 19:13 50.09668 19.92164 2357 ft 112 kts 260°
2026-05-07 19:14 50.09506 19.90990 2211 ft 112 kts 259°
2026-05-07 19:14 50.09339 19.89787 2059 ft 118 kts 259°
2026-05-07 19:14 50.09158 19.88484 1896 ft 126 kts 259°
2026-05-07 19:14 50.08972 19.87138 1720 ft 127 kts 258°
2026-05-07 19:15 50.08786 19.85787 1535 ft 128 kts 257°
2026-05-07 19:15 50.08599 19.84439 1373 ft 127 kts 256°
2026-05-07 19:15 50.08414 19.83106 1248 ft 124 kts 256°
2026-05-07 19:15 50.08251 19.81916 1114 ft 102 kts 256°
2026-05-07 19:16 50.08118 19.80919 958 ft 89 kts 255°
2026-05-07 19:16 50.07994 19.80008 816 ft 82 kts 256°
2026-05-07 19:16 50.07876 19.79215 779 ft 66 kts 254°
2026-05-07 19:16 50.07787 19.78591 780 ft 54 kts 259°
2026-05-07 19:17 50.07725 19.78156 778 ft 24 kts 242°
2026-05-07 19:17 50.07620 19.78110 779 ft 19 kts 181°
2026-05-07 19:17 50.07555 19.78108 779 ft 11 kts 182°
2026-05-07 19:17 50.07549 19.78108 779 ft 0 kts 182°
2026-05-07 19:18 50.07508 19.78106 779 ft 12 kts 182°
2026-05-07 19:18 50.07476 19.78122 779 ft 7 kts 115°
2026-05-07 19:19 50.07488 19.78256 779 ft 19 kts 78°
2026-05-07 19:19 50.07508 19.78392 779 ft 0 kts 76°
2026-05-07 19:19 50.07512 19.78422 779 ft 10 kts 76°
2026-05-07 19:20 50.07534 19.78580 779 ft 19 kts 79°
2026-05-07 19:20 50.07564 19.78798 779 ft 20 kts 77°
2026-05-07 19:20 50.07594 19.79002 779 ft 19 kts 75°
2026-05-07 19:20 50.07620 19.79202 779 ft 19 kts 79°
2026-05-07 19:21 50.07646 19.79398 779 ft 18 kts 77°
2026-05-07 19:21 50.07673 19.79589 779 ft 18 kts 78°
2026-05-07 19:21 50.07697 19.79767 779 ft 17 kts 78°
2026-05-07 19:21 50.07722 19.79945 779 ft 17 kts 77°
2026-05-07 19:22 50.07742 19.80085 779 ft 0 kts 77°
2026-05-07 19:22 50.07756 19.80184 779 ft 16 kts 79°
2026-05-07 19:22 50.07774 19.80325 779 ft 7 kts 80°
2026-05-07 19:23 50.07732 19.80372 779 ft 9 kts 166°
2026-05-07 19:23 50.07667 19.80391 779 ft 10 kts 167°
2026-05-07 19:23 50.07595 19.80416 779 ft 10 kts 167°
2026-05-07 19:23 50.07561 19.80379 779 ft 0 kts 261°
2026-05-07 19:24 50.07557 19.80353 779 ft 7 kts 257°
2026-05-07 19:24 50.07542 19.80273 779 ft 4 kts 220°
2026-05-07 19:24 50.07513 19.80274 779 ft 5 kts 166°
2026-05-07 19:24 50.07480 19.80284 779 ft 0 kts 167°